When you browse on this site, cookies collect data to enhance your experience and personalize the content and advertising you see.
Visit our Privacy Policy to learn more. By continuing to use the site, you agree to this use of cookies and data.
  • Em Portugal
  • Lista de países
  • Para 7 dias
  • Temperatura da água
  • Mapas de satélite
  • Mapa do tempo
  • Widgets de tempo
  • user-avatar
    Iniciar Sessão

    Previsão horária em Milavino

    Hoje, 16 Julho, Terça-feira

    Tempo Temperatura Precipitação Vento Pressão Humidade
    00:00 +10°C° 0 mm 0 m/s 738 mmHg 91%
    01:00 +9°C° 0 mm 0 m/s 738 mmHg 92%
    02:00 +9°C° 0 mm 0 m/s 739 mmHg 93%
    03:00 +9°C° 0 mm 0 m/s 739 mmHg 92%
    04:00 +10°C° 0 mm 0 m/s 738 mmHg 91%
    05:00 +10°C° 0 mm 0 m/s 738 mmHg 89%
    06:00 +12°C° 0 mm 0 m/s 738 mmHg 82%
    07:00 +16°C° 0 mm 1 m/s 738 mmHg 74%
    08:00 +19°C° 0 mm 1 m/s 738 mmHg 64%
    09:00 +20°C° 0.1 mm 1 m/s 738 mmHg 62%
    10:00 +20°C° 0.1 mm 1 m/s 738 mmHg 60%
    11:00 +21°C° 0.1 mm 1 m/s 738 mmHg 59%
    12:00 +20°C° 0.2 mm 2 m/s 737 mmHg 60%
    13:00 +20°C° 0.2 mm 2 m/s 737 mmHg 61%
    14:00 +20°C° 0.2 mm 2 m/s 737 mmHg 63%
    15:00 +19°C° 0.3 mm 2 m/s 737 mmHg 66%
    16:00 +19°C° 0.3 mm 2 m/s 736 mmHg 69%
    17:00 +19°C° 0.3 mm 2 m/s 736 mmHg 73%
    18:00 +17°C° 0 mm 2 m/s 736 mmHg 79%
    19:00 +16°C° 0 mm 2 m/s 736 mmHg 85%
    20:00 +14°C° 0 mm 1 m/s 736 mmHg 92%
    21:00 +13°C° 0 mm 1 m/s 735 mmHg 94%
    22:00 +12°C° 0 mm 1 m/s 735 mmHg 96%
    23:00 +12°C° 0 mm 2 m/s 735 mmHg 98%

    Amanhã, 17 Julho, Quarta-feira

    Tempo Temperatura Precipitação Vento Pressão Humidade
    00:00 +11°C° 0 mm 1 m/s 735 mmHg 98%
    01:00 +11°C° 0 mm 1 m/s 735 mmHg 98%
    02:00 +11°C° 0 mm 1 m/s 735 mmHg 98%
    03:00 +11°C° 0 mm 1 m/s 735 mmHg 98%
    04:00 +12°C° 0 mm 1 m/s 735 mmHg 98%
    05:00 +12°C° 0 mm 1 m/s 734 mmHg 98%
    06:00 +13°C° 0 mm 1 m/s 734 mmHg 96%
    07:00 +14°C° 0 mm 1 m/s 734 mmHg 94%
    08:00 +15°C° 0 mm 1 m/s 734 mmHg 92%
    09:00 +16°C° 0 mm 1 m/s 734 mmHg 87%
    10:00 +18°C° 0 mm 1 m/s 734 mmHg 82%
    11:00 +19°C° 0 mm 1 m/s 734 mmHg 77%
    12:00 +20°C° 0.2 mm 1 m/s 734 mmHg 74%
    13:00 +21°C° 0.2 mm 1 m/s 734 mmHg 71%
    14:00 +22°C° 0.2 mm 1 m/s 734 mmHg 69%
    15:00 +21°C° 0.7 mm 1 m/s 733 mmHg 71%
    16:00 +21°C° 0.7 mm 1 m/s 733 mmHg 73%
    17:00 +19°C° 0.7 mm 0 m/s 733 mmHg 75%
    18:00 +18°C° 0.5 mm 0 m/s 733 mmHg 79%
    19:00 +16°C° 0.5 mm 0 m/s 733 mmHg 84%
    20:00 +15°C° 0.5 mm 0 m/s 733 mmHg 88%
    21:00 +15°C° 0.2 mm 0 m/s 733 mmHg 90%
    22:00 +15°C° 0.2 mm 1 m/s 733 mmHg 92%
    23:00 +15°C° 0.2 mm 1 m/s 733 mmHg 93%

    Depois de amanhã, 18 Julho, Quinta-feira

    Tempo Temperatura Precipitação Vento Pressão Humidade
    00:00 +14°C° 0.2 mm 0 m/s 733 mmHg 94%
    01:00 +13°C° 0.2 mm 0 m/s 732 mmHg 95%
    02:00 +13°C° 0.2 mm 0 m/s 732 mmHg 96%
    03:00 +13°C° 0.3 mm 0 m/s 732 mmHg 96%
    04:00 +13°C° 0.3 mm 0 m/s 732 mmHg 96%
    05:00 +13°C° 0.3 mm 0 m/s 732 mmHg 95%
    06:00 +14°C° 0.6 mm 0 m/s 732 mmHg 93%
    07:00 +15°C° 0.6 mm 0 m/s 732 mmHg 90%
    08:00 +17°C° 0.6 mm 0 m/s 732 mmHg 87%
    09:00 +19°C° 0.9 mm 1 m/s 732 mmHg 84%
    10:00 +20°C° 0.9 mm 1 m/s 732 mmHg 81%
    11:00 +20°C° 0.9 mm 1 m/s 732 mmHg 78%
    12:00 +21°C° 0.6 mm 1 m/s 732 mmHg 74%
    13:00 +21°C° 0.6 mm 1 m/s 732 mmHg 71%
    14:00 +22°C° 0.6 mm 1 m/s 732 mmHg 68%
    15:00 +21°C° 1.3 mm 1 m/s 732 mmHg 73%
    16:00 +21°C° 1.3 mm 1 m/s 732 mmHg 79%
    17:00 +20°C° 1.3 mm 1 m/s 732 mmHg 84%
    18:00 +19°C° 0.6 mm 1 m/s 732 mmHg 87%
    19:00 +16°C° 0.6 mm 1 m/s 732 mmHg 89%
    20:00 +15°C° 0.6 mm 1 m/s 732 mmHg 91%
    21:00 +14°C° 0 mm 1 m/s 732 mmHg 93%
    22:00 +14°C° 0 mm 1 m/s 732 mmHg 94%
    23:00 +13°C° 0 mm 1 m/s 732 mmHg 96%

    19 Julho, Sexta-feira

    Tempo Temperatura Precipitação Vento Pressão Humidade
    00:00 +13°C° 0 mm 1 m/s 732 mmHg 96%
    01:00 +13°C° 0 mm 1 m/s 732 mmHg 97%
    02:00 +12°C° 0 mm 1 m/s 732 mmHg 98%
    03:00 +13°C° 0 mm 1 m/s 732 mmHg 98%
    04:00 +13°C° 0 mm 1 m/s 732 mmHg 98%
    05:00 +12°C° 0 mm 0 m/s 732 mmHg 98%
    06:00 +14°C° 0 mm 1 m/s 733 mmHg 96%
    07:00 +15°C° 0 mm 1 m/s 733 mmHg 94%
    08:00 +15°C° 0 mm 1 m/s 733 mmHg 93%
    09:00 +16°C° 0 mm 1 m/s 733 mmHg 90%
    10:00 +17°C° 0 mm 2 m/s 734 mmHg 87%
    11:00 +17°C° 0 mm 2 m/s 734 mmHg 84%
    12:00 +18°C° 0.1 mm 3 m/s 734 mmHg 82%
    13:00 +18°C° 0.1 mm 3 m/s 734 mmHg 79%
    14:00 +18°C° 0.1 mm 3 m/s 734 mmHg 76%
    15:00 +19°C° 0.2 mm 3 m/s 734 mmHg 76%
    16:00 +19°C° 0.2 mm 3 m/s 734 mmHg 76%
    17:00 +19°C° 0.2 mm 3 m/s 735 mmHg 77%
    18:00 +18°C° 0.1 mm 3 m/s 735 mmHg 82%
    19:00 +17°C° 0.1 mm 3 m/s 735 mmHg 88%
    20:00 +16°C° 0.1 mm 2 m/s 735 mmHg 94%
    21:00 +14°C° 0.5 mm 3 m/s 735 mmHg 95%
    22:00 +14°C° 0.5 mm 3 m/s 735 mmHg 97%
    23:00 +14°C° 0.5 mm 3 m/s 736 mmHg 98%

    20 Julho, Sábado

    Tempo Temperatura Precipitação Vento Pressão Humidade
    00:00 +14°C° 0.1 mm 4 m/s 736 mmHg 97%
    01:00 +14°C° 0.1 mm 4 m/s 736 mmHg 97%
    02:00 +14°C° 0.1 mm 4 m/s 736 mmHg 97%
    03:00 +14°C° 0.2 mm 3 m/s 736 mmHg 97%
    04:00 +13°C° 0.2 mm 3 m/s 737 mmHg 98%
    05:00 +13°C° 0.2 mm 3 m/s 737 mmHg 98%
    06:00 +13°C° 1 mm 3 m/s 737 mmHg 98%
    07:00 +14°C° 1 mm 3 m/s 737 mmHg 97%
    08:00 +14°C° 1 mm 3 m/s 738 mmHg 97%
    09:00 +14°C° 0.1 mm 3 m/s 738 mmHg 96%
    10:00 +16°C° 0.1 mm 3 m/s 738 mmHg 94%
    11:00 +16°C° 0.1 mm 3 m/s 739 mmHg 93%
    12:00 +17°C° 0.2 mm 3 m/s 739 mmHg 88%
    13:00 +18°C° 0.2 mm 3 m/s 739 mmHg 84%
    14:00 +19°C° 0.2 mm 4 m/s 739 mmHg 79%
    15:00 +19°C° 0.1 mm 3 m/s 739 mmHg 79%
    16:00 +19°C° 0.1 mm 3 m/s 740 mmHg 78%
    17:00 +20°C° 0.1 mm 3 m/s 740 mmHg 77%
    18:00 +18°C° 0.3 mm 3 m/s 740 mmHg 84%
    19:00 +17°C° 0.3 mm 2 m/s 740 mmHg 90%
    20:00 +16°C° 0.3 mm 2 m/s 740 mmHg 97%
    21:00 +15°C° 0 mm 2 m/s 740 mmHg 97%
    22:00 +15°C° 0 mm 2 m/s 741 mmHg 97%
    23:00 +14°C° 0 mm 2 m/s 741 mmHg 98%

    21 Julho, Domingo

    Tempo Temperatura Precipitação Vento Pressão Humidade
    00:00 +14°C° 0 mm 2 m/s 741 mmHg 98%
    01:00 +14°C° 0 mm 2 m/s 741 mmHg 98%
    02:00 +13°C° 0 mm 2 m/s 741 mmHg 98%
    03:00 +13°C° 0 mm 2 m/s 742 mmHg 98%
    04:00 +13°C° 0 mm 2 m/s 742 mmHg 98%
    05:00 +13°C° 0 mm 2 m/s 742 mmHg 98%
    06:00 +15°C° 0 mm 2 m/s 742 mmHg 95%
    07:00 +16°C° 0 mm 2 m/s 742 mmHg 91%
    08:00 +18°C° 0 mm 2 m/s 743 mmHg 87%
    09:00 +19°C° 0.7 mm 2 m/s 743 mmHg 84%
    10:00 +20°C° 0.7 mm 2 m/s 743 mmHg 82%
    11:00 +21°C° 0.7 mm 2 m/s 743 mmHg 79%
    12:00 +21°C° 1.5 mm 2 m/s 743 mmHg 80%
    13:00 +21°C° 1.5 mm 2 m/s 743 mmHg 81%
    14:00 +21°C° 1.5 mm 3 m/s 743 mmHg 81%
    15:00 +21°C° 1 mm 2 m/s 743 mmHg 83%
    16:00 +21°C° 1 mm 2 m/s 743 mmHg 84%
    17:00 +21°C° 1 mm 2 m/s 743 mmHg 86%
    18:00 +20°C° 0.4 mm 2 m/s 743 mmHg 88%
    19:00 +18°C° 0.4 mm 2 m/s 743 mmHg 91%
    20:00 +17°C° 0.4 mm 2 m/s 743 mmHg 93%
    21:00 +16°C° 0.1 mm 2 m/s 744 mmHg 94%
    22:00 +15°C° 0.1 mm 2 m/s 744 mmHg 95%
    23:00 +15°C° 0.1 mm 1 m/s 744 mmHg 96%
    Mostrar mais